Wind_Gust
16 20 17 17 17 19 20 20 21 28 27 28 28 23 25 16 12 15 12 11 23 16 11 12 10 15 14 11 11 15 24 24 28 18 16 21 16 21 18 26 26 25 26 27 27 26 24 18 16 16 15 17 16 17 17 18 17 15 16 16 17 16 16 16 17 17 17 17 17 16 15 13 12 12 11 11 11 11 10 11 10 10 9 9 9 10 11 11 11 11 11 11 13 13 12 13 12
20 16 14 14 19 20 21 20 28 21 27 25 29 23 21 17 13 15 18 12 17 16 12 10 11 11 11 11 15 12 20 25 24 28 23 21 20 21 21 25 26 26 24 24 25 24 24 23 16 16 16 16 16 16 17 18 19 17 17 17 18 17 17 16 17 18 17 16 17 16 15 14 13 12 11 10 9 10 8 10 10 10 9 8 8 8 9 8 9 10 10 10 11 12 12 13 13
17 14 18 18 20 24 22 20 27 25 26 26 26 31 21 16 13 17 13 11 13 12 10 11 10 10 12 9 13 16 20 16 23 23 23 18 21 22 22 26 25 25 23 24 23 23 23 21 15 15 16 15 15 15 16 16 16 18 18 18 18 18 18 18 18 18 17 16 17 15 14 13 12 12 11 10 8 7 7 7 10 10 10 9 8 8 8 9 10 9 10 10 12 13 12 14 12
20 16 21 17 21 21 23 23 25 27 27 23 23 20 13 12 10 17 10 12 12 11 12 15 19 10 14 16 17 17 18 19 18 18 25 20 21 23 28 27 25 25 19 22 23 24 21 20 15 16 16 15 15 15 15 16 17 18 18 18 18 19 18 18 18 18 17 17 16 15 14 13 11 11 11 11 8 6 7 7 8 9 10 9 9 8 8 8 9 9 8 9 10 10 11 12 11
19 17 19 22 23 24 24 24 26 26 28 22 23 26 14 11 14 9 14 10 12 12 17 13 14 12 16 16 11 16 18 20 18 16 26 18 21 23 30 26 26 26 24 24 22 23 23 19 16 16 14 16 14 14 14 15 17 18 17 17 18 18 17 17 17 17 17 16 15 13 13 12 11 11 11 10 10 8 7 7 8 9 8 7 6 4 6 6 7 8 9 8 11 12 11 11 11
19 19 17 21 25 28 26 25 25 28 25 25 27 21 13 12 12 11 12 11 12 13 8 17 14 19 18 20 23 22 15 13 17 18 21 21 20 22 28 26 26 26 23 21 21 21 26 17 15 15 15 14 14 14 14 14 15 16 16 16 17 18 17 17 16 16 16 16 14 13 12 11 11 11 11 11 11 10 9 9 10 9 8 8 6 9 10 10 11 7 7 12 11 11 11 11 12
20 18 21 21 27 25 23 25 26 25 23 19 26 18 13 13 12 11 13 14 14 13 13 15 11 18 17 21 21 21 15 14 15 20 16 23 21 21 25 27 28 25 22 22 21 24 26 16 16 15 15 15 15 14 14 14 13 15 16 16 17 17 17 16 14 14 15 15 14 14 13 12 12 12 12 12 11 9 8 7 9 10 8 7 9 9 9 9 9 9 10 11 13 14 14 12 10
18 24 19 23 22 24 25 26 28 26 19 20 16 17 11 13 11 10 11 18 20 20 17 10 17 15 15 15 14 13 15 15 19 20 23 24 20 20 18 25 27 26 24 21 21 22 23 16 15 15 15 15 15 13 13 13 13 14 15 15 16 16 16 15 15 14 13 14 14 13 13 12 13 13 13 12 12 10 9 8 9 10 9 9 9 8 9 9 10 10 12 13 14 16 15 14 11
20 24 13 23 26 25 24 27 28 25 17 13 15 12 9 11 12 14 13 12 15 12 16 18 14 16 22 16 19 17 15 16 20 20 21 22 21 20 20 21 27 27 27 24 23 25 24 16 16 13 13 13 13 14 12 12 12 12 13 13 14 14 15 14 15 14 13 12 13 13 12 12 13 13 12 12 11 10 10 10 8 9 9 9 9 9 9 9 11 13 14 14 15 16 16 14 12
22 22 20 23 21 26 25 26 26 22 19 11 13 15 14 11 13 12 15 17 16 16 15 12 16 11 20 20 18 14 18 17 20 21 20 20 20 19 19 19 22 26 27 25 23 26 23 19 15 15 13 13 12 11 11 12 12 10 11 11 11 12 13 13 13 13 12 12 12 11 11 13 14 12 11 11 11 10 10 9 8 9 9 9 8 9 8 9 10 13 13 14 15 15 14 14 12
26 25 20 25 23 26 26 23 27 18 19 13 15 11 12 11 13 15 14 14 17 16 16 12 19 14 16 20 20 17 19 19 20 21 20 20 19 20 19 19 22 23 27 27 24 23 25 24 18 13 12 12 10 8 10 10 11 10 10 10 10 10 11 12 13 12 12 11 11 11 12 14 14 13 10 10 11 10 10 10 9 9 9 9 8 7 10 13 10 9 12 13 14 13 12 10 11
24 23 23 24 24 24 23 29 22 13 13 14 19 13 14 11 10 16 15 19 15 20 18 17 20 17 18 23 19 19 17 19 20 20 21 20 20 20 18 19 19 20 25 27 26 24 23 23 21 16 12 11 11 10 8 9 10 10 9 9 9 9 10 10 12 12 11 11 11 11 12 13 14 13 11 10 10 10 10 11 11 10 9 9 8 11 13 12 10 8 11 13 13 12 11 10 10
26 20 22 24 25 25 25 21 19 12 17 16 17 23 14 12 15 15 15 17 15 19 22 20 15 19 20 19 21 19 19 19 19 20 21 20 21 21 18 18 19 18 22 27 27 24 25 23 24 23 17 10 10 5 9 8 8 8 9 8 8 8 10 11 11 12 12 11 12 12 12 13 13 13 13 11 12 10 12 12 11 11 10 10 10 10 11 10 10 10 10 12 13 12 11 9 9
26 20 21 26 21 26 23 19 19 19 24 21 20 13 9 12 12 16 17 18 17 21 23 20 14 31 27 20 18 20 20 19 21 20 20 20 20 20 20 22 14 17 19 25 26 25 24 24 25 24 23 19 17 9 6 10 9 10 8 8 9 8 7 7 9 10 11 12 11 11 11 12 12 12 12 11 10 10 12 13 13 11 11 11 10 11 11 10 9 10 10 11 11 11 10 9 8
25 17 22 23 27 20 19 28 22 19 26 22 19 10 10 15 12 15 20 20 18 17 20 20 19 22 23 21 19 21 22 22 21 19 19 19 21 19 20 19 19 16 17 18 25 24 24 24 24 25 25 24 20 18 18 16 12 11 10 6 10 12 11 9 11 14 12 11 12 12 12 11 10 9 9 8 9 9 10 11 12 12 11 12 12 12 12 11 11 12 11 10 10 9 9 10 9
22 19 20 24 25 23 22 22 22 19 17 19 20 9 14 12 15 17 19 23 22 19 16 21 16 18 26 25 25 26 25 23 22 20 21 20 19 21 20 18 19 21 16 18 20 21 24 23 24 23 23 23 21 19 20 18 14 16 10 9 9 12 12 13 12 17 15 14 14 13 12 13 9 12 7 10 6 7 8 9 11 12 12 11 11 11 11 11 11 12 12 11 11 11 11 10 10
19 19 23 24 27 22 18 19 13 28 19 11 16 13 16 17 15 16 13 15 22 15 18 19 19 12 17 15 30 34 27 24 23 22 21 22 21 21 18 19 18 18 17 17 16 21 22 23 23 21 21 23 20 18 18 18 16 13 13 11 11 15 11 14 16 16 15 15 13 11 9 13 14 14 14 13 9 13 7 7 9 10 12 12 12 12 11 12 11 13 13 12 13 12 10 11 9
19 24 23 24 23 24 16 20 17 21 16 15 12 14 13 17 10 12 15 21 22 17 24 18 17 15 16 28 28 31 29 27 24 24 23 23 23 23 23 20 18 17 18 17 15 17 21 24 23 23 25 22 22 20 15 18 18 14 17 17 18 16 12 14 21 23 18 17 11 13 14 13 12 16 14 11 16 14 12 10 9 10 8 11 12 12 11 11 12 12 12 13 13 11 13 15 14
23 23 25 25 21 19 13 14 15 16 15 15 12 12 13 16 13 13 22 20 26 23 23 19 20 23 23 25 26 30 28 26 26 23 23 22 23 23 22 20 21 20 20 18 16 16 15 16 19 25 24 24 23 23 21 19 18 16 16 18 16 11 14 14 17 19 19 17 19 17 13 14 15 14 13 16 15 9 14 11 11 10 10 9 11 12 12 13 12 13 13 13 11 11 15 15 15
22 25 24 24 20 15 10 12 13 13 14 14 13 13 16 13 15 13 20 19 24 27 28 24 23 23 27 26 25 29 27 28 24 23 23 21 20 23 21 22 21 20 18 17 18 16 14 14 15 14 19 23 18 21 21 22 19 18 17 17 16 17 16 18 18 19 15 19 18 18 11 13 13 11 9 12 14 15 14 9 11 8 7 8 10 12 14 14 15 14 14 14 10 12 15 16 14
21 27 26 21 14 15 12 12 12 13 11 14 14 13 20 13 13 15 13 21 24 22 24 24 26 24 27 23 28 26 28 27 26 23 21 21 19 19 18 18 18 18 18 16 16 16 14 13 14 15 13 16 19 17 14 19 17 14 13 13 11 12 11 12 13 14 11 14 13 19 24 14 14 10 12 14 15 13 12 15 15 15 16 14 12 14 15 17 17 18 18 16 15 15 14 12 8
18 22 21 24 11 17 11 12 8 11 10 14 12 18 16 14 16 17 18 18 19 24 22 22 24 27 30 29 27 24 26 28 26 25 21 20 20 18 17 17 16 16 16 17 16 17 17 16 15 15 14 14 12 16 15 18 19 20 21 20 21 20 24 20 18 13 19 19 20 13 18 17 17 21 21 16 21 14 18 20 19 16 11 12 12 14 12 17 16 15 15 16 14 11 9 8 7
25 19 22 20 17 18 10 11 8 10 17 15 14 14 14 15 15 13 17 16 13 17 18 21 24 32 28 23 25 25 28 27 24 25 23 21 19 18 18 18 18 17 16 16 15 16 16 14 14 15 16 13 12 13 14 16 17 17 20 24 25 25 22 20 16 18 15 19 17 15 16 15 15 13 14 19 15 18 15 14 14 15 14 14 15 10 10 12 12 16 12 14 13 13 11 10 10
23 26 16 19 13 17 13 16 10 16 14 16 14 14 17 11 19 13 19 15 10 13 15 22 28 25 27 30 29 31 28 26 24 23 24 21 19 18 18 17 21 18 16 16 17 16 14 16 14 13 13 12 10 12 10 10 11 12 9 12 13 11 15 21 14 16 12 11 13 16 13 13 17 18 14 8 8 8 8 7 12 10 11 16 12 8 10 10 10 9 13 11 12 12 15 14 13
24 30 13 13 12 15 14 16 18 15 13 15 15 16 16 13 16 15 17 13 11 15 17 21 30 25 26 26 30 29 28 25 24 23 20 21 19 18 18 18 16 16 16 15 14 17 16 15 14 13 13 12 11 9 9 7 7 10 11 9 14 11 11 10 17 16 12 15 14 18 10 11 12 12 9 11 14 9 9 17 15 13 9 9 10 7 15 9 8 10 11 12 10 12 14 14 14
27 21 18 12 15 17 18 18 16 15 17 13 14 17 9 12 12 17 17 12 12 16 20 21 25 25 23 26 25 24 23 23 23 23 22 21 20 19 19 20 20 18 18 16 15 12 15 15 14 15 12 13 13 10 8 8 7 7 8 9 8 10 11 10 9 11 12 9 10 9 10 11 11 9 12 10 8 11 13 12 12 17 13 10 8 9 12 9 8 7 8 9 12 11 12 13 14
12 18 16 17 18 17 15 17 18 17 17 10 19 16 15 13 22 20 12 14 16 20 22 23 26 21 27 23 24 24 24 23 24 24 23 21 22 21 20 21 21 20 19 18 16 16 14 16 15 15 13 8 10 12 7 8 8 9 10 8 9 10 8 8 11 10 14 16 15 8 13 13 11 10 10 8 10 8 9 7 9 9 10 11 9 11 9 7 7 7 7 10 11 9 11 12 15
15 15 14 18 19 17 14 17 18 16 20 16 19 14 13 16 18 19 19 15 14 18 22 24 23 29 24 25 26 24 24 24 26 23 24 24 25 24 21 23 20 20 20 18 16 16 15 14 17 13 16 9 7 9 9 7 8 8 8 11 8 9 9 9 11 11 10 8 10 11 12 12 10 10 9 11 13 11 15 11 10 12 13 13 13 11 9 9 7 9 10 9 10 11 9 10 10
14 15 22 22 21 27 18 23 21 19 21 19 19 14 20 22 17 16 15 17 14 16 20 24 27 31 27 25 27 24 26 28 27 25 24 23 21 22 22 20 21 22 20 18 18 16 15 11 14 12 16 11 10 8 10 7 7 9 10 9 9 7 9 9 11 6 9 9 11 11 9 10 10 11 13 13 15 12 10 13 11 14 14 10 13 11 11 6 8 9 10 12 13 12 11 10 12
16 18 24 17 21 25 22 20 20 23 20 17 16 25 23 24 20 15 16 15 16 17 20 22 24 33 31 29 27 26 25 26 25 24 25 22 22 23 22 20 19 19 23 20 17 18 16 13 14 11 13 14 7 8 7 9 8 8 8 9 10 10 9 9 9 10 10 9 10 10 9 9 9 10 10 9 12 14 12 13 13 13 12 11 15 12 12 10 10 8 10 12 12 12 13 12 12
25 20 21 24 22 27 25 24 20 25 22 18 19 27 20 21 17 16 10 14 18 19 19 20 21 21 29 31 24 23 19 21 22 22 21 22 21 22 22 21 20 19 20 20 20 19 15 15 13 13 10 12 11 10 9 7 7 7 8 7 8 9 8 7 8 10 10 10 10 10 8 9 9 10 10 15 17 13 15 15 10 12 11 11 15 12 10 11 10 9 11 12 13 12 10 9 10
23 24 23 23 27 27 22 18 20 29 26 21 21 27 19 20 21 16 13 14 17 17 18 19 19 20 20 23 22 22 18 16 20 19 22 18 21 22 24 23 20 20 19 20 20 19 18 15 14 14 11 10 9 10 9 7 9 7 9 7 6 6 10 7 6 7 7 9 10 11 8 8 6 7 7 9 10 12 17 9 16 11 12 10 13 13 13 13 8 8 8 11 9 11 15 12 10
22 25 15 20 22 25 20 19 21 26 20 20 24 26 20 21 21 17 13 15 16 18 18 17 19 20 20 24 23 21 24 23 19 24 24 23 19 25 24 23 21 19 19 19 20 18 18 18 14 14 14 12 10 10 9 9 7 9 7 8 7 8 9 11 7 6 7 6 15 15 11 8 9 8 8 8 10 10 8 10 14 14 11 11 13 16 15 12 9 10 7 7 10 10 14 13 10
21 21 22 16 24 28 19 22 21 18 17 24 25 31 17 21 17 17 16 16 17 19 17 17 18 20 21 22 27 27 22 23 29 25 27 21 27 24 23 21 20 20 19 19 19 19 19 18 16 15 14 13 12 11 10 10 10 9 8 9 8 8 6 6 7 8 8 9 8 15 13 9 7 8 7 7 8 10 9 18 16 9 10 12 14 15 16 16 13 13 13 13 14 12 13 14 14
18 19 16 14 20 20 19 27 27 20 23 29 23 24 25 24 19 16 17 17 17 17 18 17 17 18 20 27 26 29 27 25 22 23 26 25 23 26 26 23 20 19 19 19 19 18 19 18 16 15 14 14 13 12 10 8 9 7 10 7 9 6 6 10 7 9 8 7 10 9 9 9 10 8 7 6 7 9 8 16 12 8 10 9 12 15 15 17 18 18 16 13 7 8 9 8 8
10 17 18 22 19 22 21 21 22 17 19 27 19 21 26 23 16 19 17 15 17 16 17 18 19 19 18 21 23 25 31 32 27 23 26 25 24 24 25 26 21 20 19 19 18 18 18 18 16 16 15 15 13 13 13 12 13 12 11 10 10 9 8 10 7 10 6 10 8 10 10 7 9 7 7 7 7 8 9 12 12 13 10 11 10 13 12 16 17 15 14 14 11 9 12 11 11
19 15 16 16 20 24 24 20 13 13 20 20 24 23 22 20 14 12 14 15 16 18 17 18 17 19 20 20 19 21 27 29 29 30 28 28 25 29 22 23 24 21 19 20 20 18 18 20 17 17 16 14 14 14 13 11 11 10 9 7 10 10 11 8 8 11 14 12 11 11 11 12 10 9 10 8 5 7 8 14 12 13 12 11 11 9 10 13 11 10 12 10 14 15 15 14 11
16 16 17 19 18 21 21 20 17 15 18 22 22 16 18 20 18 17 14 17 21 20 19 20 20 21 20 20 21 20 19 31 28 29 26 25 28 22 22 24 21 24 22 22 21 20 16 16 17 17 17 15 12 10 10 8 8 8 10 11 9 12 14 15 13 13 13 13 11 11 10 10 10 10 10 9 8 7 6 8 7 11 11 11 9 11 12 9 10 13 10 12 16 16 17 11 12
16 21 18 22 20 20 18 17 15 14 16 23 18 21 23 25 21 17 16 18 21 19 19 20 21 19 19 20 18 17 18 21 27 28 26 30 28 27 23 20 22 22 21 22 22 20 19 18 17 17 16 16 13 11 11 11 8 9 6 11 6 13 16 18 16 14 13 15 11 12 11 10 9 10 8 8 7 7 8 8 9 9 8 9 10 10 11 12 11 12 14 13 13 14 11 11 12
19 21 24 22 21 26 22 16 14 13 21 20 21 22 18 21 19 18 17 19 20 14 14 17 19 20 19 19 18 19 20 22 23 21 22 25 27 27 23 22 21 20 21 22 23 22 22 20 18 17 17 15 15 12 10 10 10 10 10 10 11 10 14 12 12 12 12 13 14 12 13 11 11 11 10 9 9 11 8 7 9 9 9 8 9 9 7 7 9 11 10 11 12 11 14 13 12
20 20 22 21 21 18 20 14 12 9 14 16 21 21 24 25 26 27 23 21 14 17 18 18 18 19 18 17 17 17 20 21 22 28 23 24 26 27 27 24 23 23 22 22 24 25 22 21 19 19 18 17 16 14 11 13 14 12 13 12 12 14 13 13 13 14 13 12 14 12 12 11 11 12 11 11 12 10 10 10 10 9 9 8 9 10 8 9 11 8 8 7 8 10 10 11 12
20 18 18 19 19 12 18 13 16 21 22 22 18 27 27 27 32 29 20 19 20 20 22 22 22 22 20 20 18 17 15 16 21 23 26 24 24 24 26 26 25 25 24 22 23 25 22 24 22 20 18 18 18 16 13 14 14 14 15 16 16 15 15 13 13 13 13 13 15 12 13 13 13 12 13 12 12 12 11 10 7 9 10 10 10 10 9 9 7 10 11 9 8 8 10 12 12
20 20 19 18 20 16 16 18 16 22 25 17 16 24 25 18 17 19 19 19 21 21 19 21 24 23 22 21 21 21 19 17 17 17 22 28 25 24 25 26 27 26 25 23 23 23 24 23 23 21 20 20 19 17 15 15 14 15 14 14 14 13 14 12 14 12 13 14 14 13 14 12 13 13 12 12 12 13 12 12 11 11 11 10 11 11 12 10 12 14 10 8 9 9 7 10 10
23 13 18 16 20 18 17 19 22 24 16 21 18 24 21 22 22 18 18 20 21 19 21 20 20 18 20 21 21 17 19 17 19 18 21 20 24 24 25 26 26 26 24 25 24 24 26 26 25 22 20 21 19 19 18 16 16 15 14 13 14 13 13 15 13 13 13 14 14 14 14 13 13 13 12 13 13 13 13 13 11 11 11 12 11 11 10 11 11 12 11 8 7 9 9 10 9
18 13 14 17 19 17 18 22 23 22 19 25 22 23 31 26 22 15 19 22 22 22 22 19 17 16 16 15 16 14 15 15 15 15 18 21 22 24 23 24 24 25 26 27 27 25 24 23 24 22 21 21 20 19 19 18 16 16 16 15 14 14 17 16 15 15 15 14 12 12 13 14 14 13 14 13 14 14 13 13 12 11 11 11 13 13 12 12 12 10 10 12 11 12 12 11 8
9 11 14 20 16 17 17 21 22 19 17 22 22 17 27 24 17 20 19 19 23 25 16 16 13 12 13 12 10 12 13 12 14 16 15 14 15 23 23 22 24 26 26 25 26 26 26 24 24 24 22 22 23 22 20 19 16 17 17 14 14 14 16 17 15 16 14 14 13 13 13 13 15 14 13 13 13 15 13 13 13 12 12 13 15 14 12 12 11 12 12 11 11 10 11 12 13
12 14 22 22 22 21 18 21 25 24 26 27 22 17 22 27 18 18 21 20 15 14 18 12 11 9 9 10 12 11 12 12 13 14 13 13 14 16 19 23 23 23 23 26 26 28 27 27 26 25 24 22 23 23 21 20 18 16 17 15 14 14 15 15 16 15 15 13 14 13 12 13 13 15 14 13 12 13 12 12 12 12 12 11 13 12 11 13 11 11 11 11 12 12 12 11 11
17 24 23 21 20 14 21 21 19 24 28 23 22 20 18 26 19 17 13 18 16 10 16 15 13 11 12 10 11 12 13 13 13 13 14 13 14 18 20 23 24 25 25 27 26 28 28 27 28 26 24 22 23 23 21 20 20 18 15 15 16 15 15 17 16 16 16 14 14 13 13 13 14 14 13 13 12 12 12 12 11 11 12 11 12 12 11 12 11 11 12 12 12 11 11 11 12
24 22 23 20 21 20 24 24 24 26 23 14 12 15 19 26 22 10 15 15 15 15 13 14 12 11 10 11 11 12 12 13 13 13 11 12 14 17 21 22 23 25 27 27 28 27 27 27 28 27 26 24 25 23 22 21 19 19 18 17 17 16 17 16 16 16 15 15 15 14 14 14 15 14 13 14 13 12 12 11 10 11 11 11 11 12 12 12 12 12 13 12 13 12 14 13 14
23 25 21 24 25 22 21 23 21 24 23 12 15 11 24 16 19 13 16 15 15 14 12 12 11 11 10 11 11 13 13 14 15 15 15 13 12 14 18 20 23 24 24 27 26 25 24 25 27 28 27 25 24 23 24 22 21 19 17 17 17 17 17 16 17 17 17 16 16 15 13 14 15 14 14 14 15 13 12 11 11 12 12 11 11 11 10 10 9 13 12 12 12 12 12 11 12
25 21 25 21 23 24 22 23 20 20 13 16 12 13 24 21 11 15 15 16 15 15 17 15 12 12 9 11 12 13 15 15 16 16 16 14 9 10 13 17 19 21 22 23 23 24 24 25 27 27 27 25 24 24 23 23 21 19 18 18 17 17 17 17 17 16 17 16 17 17 14 13 14 15 16 15 17 13 13 14 13 13 13 11 10 10 11 10 9 11 13 11 11 11 11 10 11
20 21 23 25 22 16 27 17 20 17 17 15 20 19 11 16 20 15 16 17 17 17 17 16 15 13 12 11 13 14 16 17 17 16 16 13 11 8 12 14 17 18 19 20 20 20 21 23 25 26 26 25 24 23 23 24 22 20 18 17 17 16 17 17 17 16 16 16 15 17 16 14 13 14 15 16 16 15 15 15 15 15 14 13 12 11 10 11 9 9 11 10 11 11 10 9 10
12 21 25 21 14 22 20 17 17 5 19 31 21 18 27 18 19 17 20 18 19 18 19 18 17 16 12 13 14 15 16 18 17 17 16 16 12 9 9 12 12 13 16 17 16 17 18 19 22 24 23 22 23 23 22 22 21 19 19 18 17 16 16 16 17 15 14 15 15 16 17 16 14 15 16 17 17 16 16 16 16 16 15 14 13 12 10 10 9 9 10 10 10 10 9 10 8
25 22 18 19 19 18 21 23 12 16 24 24 18 20 24 22 22 25 21 21 19 18 19 19 16 16 15 15 14 15 17 17 17 18 16 15 18 14 12 13 12 11 12 13 14 13 13 16 20 22 21 21 22 21 20 20 21 19 19 19 19 18 17 16 16 15 16 16 17 17 16 18 16 16 17 18 17 18 17 16 16 16 16 15 14 13 12 12 10 10 10 9 10 10 10 11 9
26 25 14 18 17 19 20 21 21 22 23 26 21 23 27 24 20 23 23 24 20 20 19 19 18 16 16 16 17 16 16 16 18 18 18 17 15 15 15 14 16 15 13 12 13 11 10 14 15 15 16 16 18 18 18 19 19 18 18 18 18 19 18 17 17 16 16 17 17 18 18 17 17 17 19 19 19 20 19 18 17 17 17 16 15 15 14 13 12 11 11 10 10 10 10 10 9
24 23 30 20 26 25 21 19 23 25 24 21 22 24 26 16 18 16 20 21 21 21 21 19 19 16 16 16 16 17 16 16 18 20 20 18 16 15 15 15 17 17 16 16 13 10 10 12 13 13 13 13 13 14 14 14 16 17 17 16 17 19 20 19 17 18 18 17 18 17 18 17 18 19 19 20 20 20 20 20 19 18 18 17 17 16 16 15 13 13 13 13 12 10 11 11 12
25 26 27 27 28 18 26 23 27 25 25 26 25 27 23 13 11 15 19 20 21 20 20 18 17 16 16 16 17 17 18 17 18 19 19 19 17 16 15 16 20 19 18 17 17 15 11 10 11 14 15 13 13 14 14 13 14 15 14 15 17 17 16 16 15 17 19 17 14 16 17 18 19 19 19 22 21 22 22 21 21 20 20 19 18 17 16 15 14 14 13 11 13 13 12 12 11
19 18 19 22 22 24 25 27 25 31 31 30 25 31 21 12 10 12 13 17 18 20 18 18 17 17 17 17 16 17 18 17 17 17 18 19 19 19 20 20 19 19 19 18 17 14 12 12 11 9 11 13 11 13 12 12 12 12 12 13 16 17 16 13 10 15 19 18 19 20 17 17 19 21 21 24 24 22 22 23 22 22 21 21 20 19 17 16 16 15 14 13 13 14 13 12 11
Wind_Speed
9 9 8 8 7 7 7 7 7 8 7 11 11 9 4 5 2 5 3 1 10 6 2 3 2 6 4 1 3 7 14 13 13 5 5 5 6 11 9 16 16 14 14 14 14 13 14 13 13 13 13 14 14 15 14 15 14 13 13 13 13 13 13 13 13 13 13 14 13 12 11 10 8 8 9 9 9 9 8 8 8 7 7 7 6 7 7 7 7 8 8 8 10 10 9 9 9
8 7 6 6 7 7 6 7 7 8 9 9 12 11 7 5 2 5 8 4 7 5 2 2 2 2 3 4 7 4 11 14 14 12 9 9 9 10 12 16 17 13 12 13 13 13 13 13 13 13 13 13 14 14 15 15 16 14 13 13 13 13 13 13 14 14 13 13 13 12 11 10 9 9 9 8 7 8 7 8 7 7 7 6 6 6 6 5 7 7 6 7 8 9 9 10 10
6 5 7 7 7 8 7 6 9 9 11 11 9 13 9 6 3 7 1 4 5 3 2 2 3 3 4 2 4 6 8 8 13 12 9 9 10 8 13 15 15 14 14 12 13 13 12 12 12 13 13 12 12 13 14 14 13 15 14 14 14 14 14 14 14 14 13 13 13 12 11 10 10 9 9 8 7 6 5 6 7 7 7 7 6 6 6 7 7 6 6 6 9 9 9 10 9
10 7 8 6 6 6 7 6 10 10 10 9 8 8 4 1 1 8 3 4 2 3 2 5 6 2 6 7 6 9 8 8 9 9 8 8 8 11 15 16 14 10 9 11 12 13 11 13 12 13 13 12 12 12 12 13 14 15 15 15 15 15 14 14 15 15 14 13 13 12 11 10 9 9 9 8 6 5 6 6 6 7 7 7 6 5 5 6 7 6 6 7 7 7 8 9 9
8 6 7 8 8 8 7 8 10 10 11 7 8 11 6 1 6 1 6 1 3 3 8 4 2 3 7 6 2 4 7 11 10 8 9 7 12 11 17 16 13 12 12 12 12 13 13 15 13 13 12 12 11 12 12 12 14 15 14 14 14 14 14 14 14 14 14 13 12 11 10 9 9 9 9 8 8 7 6 6 7 7 6 6 5 3 5 5 5 5 6 6 8 9 8 8 8
8 7 7 8 7 7 7 9 9 12 10 10 12 7 4 3 2 3 4 4 4 4 1 9 2 8 6 9 8 7 4 3 8 9 9 10 11 14 17 14 14 13 11 12 12 10 13 14 13 12 12 12 11 11 11 11 13 13 13 13 14 15 14 14 13 13 13 13 11 11 10 9 9 9 8 9 8 8 7 7 9 7 6 6 5 7 8 9 9 4 6 9 8 8 8 8 9
6 6 6 7 9 7 8 10 11 10 10 9 11 5 4 4 2 4 5 5 5 5 5 6 2 9 6 7 8 8 6 6 6 9 8 12 12 13 16 15 12 14 11 10 10 12 16 13 13 12 12 12 12 11 11 11 11 12 13 13 14 14 14 13 12 12 12 12 12 11 10 10 10 9 9 9 9 7 6 6 8 7 6 5 7 7 7 7 7 7 8 8 10 11 11 10 8
8 9 5 8 7 7 10 11 12 10 6 9 6 8 3 3 3 3 3 9 9 8 8 2 8 6 5 7 3 4 8 7 10 11 13 12 12 12 11 15 15 13 13 9 10 11 17 13 12 12 12 12 12 11 10 10 10 10 12 12 13 13 13 12 12 11 11 11 12 11 11 10 10 10 10 10 9 8 7 7 7 7 7 6 7 7 7 8 8 8 9 10 11 12 12 11 8
7 9 4 8 10 7 9 11 12 13 5 3 5 3 3 4 4 4 5 3 7 4 7 7 4 5 8 4 7 6 6 8 11 12 12 13 12 11 8 12 15 13 12 12 12 14 14 13 13 11 12 11 11 11 10 9 10 9 10 10 11 12 12 12 12 12 11 10 10 11 10 10 10 10 9 9 9 7 8 8 7 7 6 6 6 7 7 7 9 10 11 11 11 12 13 11 10
7 7 7 6 7 11 10 10 11 9 7 1 4 6 6 3 5 4 7 8 7 6 6 5 7 4 9 9 7 5 6 10 12 12 12 12 11 10 10 11 14 16 13 11 12 14 12 15 13 12 11 11 10 10 9 8 8 8 8 8 9 10 10 11 11 11 10 10 10 9 9 11 11 10 9 9 8 8 7 7 7 7 7 6 5 6 6 7 8 9 10 11 12 12 11 11 10
8 8 7 9 9 10 10 9 11 8 8 4 6 2 4 2 5 6 5 6 7 6 8 5 8 4 8 9 6 6 8 10 11 11 11 11 11 11 10 11 14 15 15 13 13 13 14 13 14 11 10 10 9 7 8 9 8 7 7 8 8 8 9 10 10 10 10 9 9 9 10 11 11 10 8 8 9 8 8 8 8 7 7 7 6 5 8 10 8 7 9 10 11 11 9 8 9
9 8 7 9 10 9 10 12 11 2 4 2 8 5 4 3 2 7 7 10 7 10 9 8 3 7 8 10 3 5 9 10 9 10 11 11 9 11 9 8 7 12 15 14 12 13 12 13 12 11 9 9 9 8 7 8 8 7 7 7 7 8 8 9 9 10 9 9 9 10 10 11 11 10 9 8 8 8 8 9 8 8 7 7 6 9 10 9 6 5 8 10 10 9 9 8 8
10 7 9 9 9 10 12 10 7 4 7 5 8 10 5 5 6 6 7 8 6 9 11 11 5 9 6 7 7 8 9 10 10 11 11 9 10 10 8 7 7 11 14 16 13 14 14 12 12 12 10 7 8 4 8 7 7 7 7 7 7 7 8 9 9 9 10 9 9 10 10 11 11 11 10 9 10 8 10 9 9 8 8 8 8 8 9 8 6 5 8 9 9 9 8 7 7
9 7 7 9 8 11 9 7 7 8 8 9 9 5 2 4 4 7 7 9 8 10 11 10 5 19 13 8 7 7 6 9 12 12 9 10 9 8 9 8 3 9 10 16 13 14 14 12 12 12 11 9 9 5 6 8 8 6 6 7 7 6 6 6 8 8 9 10 9 8 9 10 10 10 10 9 8 9 10 11 10 9 9 9 9 9 9 8 6 7 7 8 8 8 7 7 6
10 6 7 8 10 8 8 10 10 7 10 10 9 3 1 6 5 5 10 10 8 8 8 11 8 9 8 9 6 7 10 10 13 11 10 10 12 9 11 10 6 5 9 11 14 10 13 13 13 11 10 10 10 8 7 9 9 8 6 5 7 9 6 7 8 8 7 9 10 10 9 9 8 8 8 7 7 8 8 10 10 9 9 10 9 10 10 8 9 10 9 8 8 7 7 8 7
8 6 6 9 10 10 7 9 11 8 2 9 9 2 4 4 6 8 8 12 8 9 6 6 4 5 9 9 11 12 15 14 13 12 10 11 11 8 8 8 10 6 7 7 12 9 9 13 12 9 10 10 8 8 8 7 6 9 8 8 6 7 10 9 10 11 8 8 10 10 9 8 6 6 4 5 5 5 7 7 9 10 10 9 9 9 9 9 9 10 9 9 9 9 8 7 7
7 6 8 9 11 10 7 7 4 9 3 2 8 4 7 6 6 7 6 6 12 6 7 8 8 1 9 5 18 18 15 14 14 14 13 11 8 6 7 5 8 8 4 8 8 11 11 9 12 10 11 14 10 9 8 7 6 5 8 8 9 10 8 12 11 11 8 9 9 8 6 6 6 4 4 4 5 6 6 5 8 9 10 9 10 10 9 9 9 10 10 10 10 10 8 7 7
6 8 8 10 9 11 6 9 6 10 5 6 4 6 5 9 1 3 6 10 12 6 11 9 8 7 5 15 14 18 17 16 15 15 13 12 9 8 7 6 5 7 6 6 7 8 11 12 9 9 8 10 10 6 5 6 8 7 8 8 9 9 9 11 12 10 9 6 2 6 6 4 5 7 6 6 4 7 7 8 8 8 7 9 10 10 9 9 10 9 10 10 10 9 10 5 6
8 8 9 10 8 7 3 5 7 5 5 7 4 4 4 7 4 3 9 11 14 11 12 10 10 13 6 16 12 15 17 15 16 13 14 14 12 12 10 8 7 9 8 7 6 7 6 7 11 13 10 10 10 5 3 5 6 6 7 7 5 7 7 8 9 9 7 9 10 8 5 4 4 5 5 6 8 8 7 9 9 8 8 8 10 10 10 10 10 11 11 10 9 9 7 6 6
10 10 9 10 10 3 1 4 5 5 6 5 4 4 6 4 5 3 9 9 13 15 11 13 10 13 9 10 13 14 16 17 14 13 14 13 13 14 12 12 10 9 8 7 6 6 5 5 6 7 11 13 9 9 8 9 7 8 7 8 6 6 7 8 8 10 5 3 5 3 2 4 6 4 6 9 8 7 6 7 8 7 6 7 8 8 10 10 11 11 12 11 8 7 6 7 6
8 11 10 8 1 6 3 4 5 5 4 6 5 5 10 3 5 5 6 10 12 11 13 13 14 14 13 12 10 13 14 16 14 13 12 13 11 10 9 10 9 9 8 7 7 6 6 5 6 6 5 8 10 5 6 9 8 6 6 5 5 6 4 5 5 4 4 6 5 4 2 3 3 3 5 6 6 4 4 6 5 5 6 6 9 5 7 8 9 8 8 8 6 6 6 5 3
6 10 11 14 2 8 4 3 1 3 3 6 5 9 7 6 7 9 9 8 6 6 11 12 13 13 19 17 12 11 14 15 14 12 14 12 11 10 10 8 8 7 7 7 7 7 5 7 6 5 5 6 5 7 6 5 5 4 5 2 3 4 6 4 5 5 6 7 9 5 9 6 5 2 2 3 1 4 4 2 4 2 5 5 4 6 5 6 7 6 6 7 5 4 3 2 2
9 8 12 11 7 8 2 3 0 3 8 7 6 4 5 7 6 5 9 8 4 9 10 13 14 17 15 12 10 3 4 14 15 15 12 13 11 10 10 8 7 6 6 6 6 7 6 6 6 7 5 3 4 5 5 7 5 5 6 8 9 7 5 2 4 5 7 10 7 6 7 7 6 5 3 7 6 8 6 7 6 7 6 2 5 4 4 5 5 6 5 6 5 5 4 4 3
10 9 7 11 6 8 6 7 4 7 7 7 6 6 8 3 10 4 9 6 3 5 5 15 16 15 16 12 10 9 13 14 14 15 14 11 10 12 9 9 10 9 7 8 8 5 6 7 5 5 5 4 3 3 4 3 4 2 4 5 4 5 8 11 5 7 6 4 6 3 5 5 8 5 7 5 3 3 3 3 2 2 4 7 4 2 3 4 3 3 4 3 5 5 6 6 5
11 13 6 4 5 7 6 7 9 8 6 6 7 8 8 6 4 6 7 5 3 5 7 13 13 13 11 16 17 17 18 16 13 14 12 10 12 11 10 8 8 8 8 8 6 8 7 7 6 4 5 4 3 2 2 0 0 3 3 3 6 3 4 4 8 5 1 4 6 8 4 3 5 5 1 1 5 2 3 6 4 4 3 2 3 2 3 3 3 3 4 4 3 4 5 6 6
14 12 10 4 7 8 9 10 8 7 6 5 5 9 3 5 3 8 7 4 4 7 10 11 13 14 10 13 15 16 15 14 15 14 12 12 11 12 12 10 9 9 9 8 7 5 6 7 6 7 4 4 5 3 2 1 1 1 1 2 3 2 3 3 1 4 5 3 3 0 3 2 3 1 2 2 1 3 3 2 2 2 1 4 2 2 3 3 2 2 2 3 4 4 3 4 5
1 10 8 8 9 9 7 8 9 9 8 3 9 8 7 5 10 7 4 5 8 11 12 12 12 12 9 9 11 11 14 15 15 13 13 12 12 12 11 11 11 11 10 9 7 7 6 7 6 6 5 2 2 3 1 3 2 2 2 2 3 2 2 2 2 3 6 6 2 2 4 5 3 1 2 1 1 2 2 1 1 1 1 3 1 3 3 1 1 1 2 3 3 2 3 4 5
6 7 5 10 10 8 6 8 10 6 8 8 10 4 3 8 9 4 9 7 7 10 12 14 12 12 13 13 11 13 13 14 11 14 15 14 11 11 12 11 10 12 10 9 7 7 7 6 7 6 7 3 3 1 2 1 2 2 2 3 2 0 2 2 2 4 4 1 5 3 1 1 3 2 2 1 2 2 2 2 2 2 1 3 5 4 1 1 1 3 4 4 4 3 2 2 3
7 6 10 12 12 12 10 10 11 10 8 10 11 5 11 10 7 8 8 9 7 8 12 14 13 16 14 12 13 12 11 14 12 13 13 12 11 11 12 9 10 11 9 9 9 9 7 6 7 5 8 5 3 3 3 2 2 2 2 2 2 1 1 2 3 0 3 1 1 2 3 4 3 2 3 2 3 3 1 2 3 2 1 3 5 5 3 1 2 2 2 4 5 5 3 3 3
8 9 11 8 10 11 12 11 11 12 7 9 6 9 9 11 10 7 8 7 8 8 10 12 11 16 11 12 10 10 11 11 11 11 11 10 11 11 11 12 10 9 10 9 10 10 7 5 6 4 6 7 2 2 2 1 2 2 2 2 2 1 1 1 2 1 2 2 3 2 2 0 1 3 3 2 3 4 4 5 2 3 4 4 2 2 1 2 2 2 3 4 6 5 5 4 4
9 10 9 9 8 10 14 10 10 14 12 9 9 11 7 10 9 8 4 6 9 9 9 11 11 11 15 18 14 12 9 9 11 10 8 10 11 12 12 10 12 10 10 11 11 11 8 7 5 5 4 6 4 4 3 1 1 2 1 1 2 1 0 1 1 1 2 2 3 4 2 2 2 3 3 6 3 5 4 8 1 3 2 3 2 3 3 3 4 2 2 3 5 4 4 3 2
9 9 9 9 12 8 12 10 11 14 12 12 11 11 7 11 10 8 6 6 9 9 9 10 9 9 9 11 8 8 6 8 9 6 10 10 10 11 12 13 11 12 11 12 11 10 10 8 7 7 5 4 4 4 3 2 3 0 3 1 1 1 3 1 1 1 1 3 1 3 2 3 1 1 2 2 3 3 8 2 5 1 3 3 4 5 5 4 2 1 1 3 2 4 3 3 4
8 10 7 8 9 9 9 10 10 17 8 11 13 10 9 8 12 8 6 7 8 9 9 9 10 10 10 10 6 6 8 4 9 11 11 9 6 10 11 12 11 12 12 12 11 11 10 10 8 8 7 6 5 4 4 3 2 3 2 2 1 3 3 3 1 1 0 1 6 4 4 2 3 2 3 2 2 4 2 0 5 2 4 2 4 6 5 3 3 2 2 2 1 2 5 5 3
7 8 8 6 11 13 7 11 11 9 6 11 14 13 8 10 7 8 8 8 9 10 9 8 9 9 9 11 15 11 9 8 11 13 15 10 10 13 13 13 11 12 11 11 12 10 10 10 8 7 7 6 5 5 4 3 3 3 2 3 3 2 1 1 2 2 2 3 2 6 6 3 2 3 3 1 1 2 1 8 2 1 1 4 4 5 4 4 3 2 2 3 3 4 5 6 5
7 7 7 4 9 11 5 8 12 10 13 14 13 11 13 13 10 6 8 9 9 9 9 8 8 8 9 11 11 17 14 15 12 10 15 14 15 15 14 14 11 11 10 11 11 10 10 9 7 8 7 7 6 6 5 3 4 1 4 1 3 1 1 4 2 2 2 2 4 3 3 3 3 3 0 1 2 1 2 7 1 3 4 2 3 3 5 7 5 3 5 4 2 1 2 0 2
2 9 5 9 7 9 8 9 11 9 9 13 10 7 12 13 6 8 9 7 9 7 9 9 10 9 8 10 12 12 15 17 14 14 18 14 13 14 15 15 11 10 10 10 11 11 10 10 8 7 7 7 6 6 5 5 5 4 4 3 2 2 2 4 2 4 1 3 2 4 3 2 2 2 1 1 1 2 2 5 3 1 2 4 4 3 4 4 7 7 6 4 4 2 4 3 3
10 7 7 6 7 11 13 12 4 3 9 8 12 13 11 11 7 5 7 6 8 9 9 8 8 8 9 10 10 12 16 14 15 11 12 17 14 15 12 12 12 11 11 11 11 10 10 10 9 9 8 7 6 6 5 4 4 4 3 2 3 3 3 2 2 4 5 4 4 4 4 4 3 3 3 1 1 1 1 7 5 3 3 4 4 3 2 4 2 1 2 3 2 2 3 6 3
7 7 7 7 7 9 8 7 8 6 8 8 13 8 8 9 8 9 6 7 11 11 10 10 11 11 10 11 11 10 9 15 17 17 17 17 15 14 11 13 13 14 13 13 12 11 9 9 10 9 8 7 6 4 4 2 3 2 3 4 3 4 5 6 5 5 5 5 4 3 3 3 3 3 4 3 2 2 1 1 2 4 4 4 4 5 6 4 3 3 2 2 5 6 8 5 4
8 9 8 9 7 9 3 8 6 4 7 9 8 9 9 13 12 8 8 9 10 10 10 10 12 11 9 9 9 9 10 12 11 16 15 15 17 17 13 11 12 13 13 14 12 11 9 8 8 9 8 7 6 4 4 4 2 3 1 4 1 5 7 8 7 6 5 5 4 5 4 4 3 3 3 3 1 2 3 2 2 1 1 3 4 4 6 6 5 6 8 6 4 7 4 3 4
8 9 10 9 7 10 7 6 5 6 6 8 10 11 7 10 10 10 9 10 11 8 8 10 11 11 10 9 9 9 10 9 13 13 11 12 15 15 13 12 11 11 11 12 12 12 10 10 9 9 8 8 7 6 4 5 4 5 5 5 5 4 6 5 6 5 6 5 6 5 5 4 5 4 4 3 3 4 3 2 2 3 3 2 3 3 3 3 4 5 5 5 5 5 5 5 5
10 11 10 8 11 8 7 3 5 1 7 9 11 8 6 10 12 11 12 11 7 6 7 9 9 10 10 10 10 9 11 12 12 13 13 15 16 16 15 13 12 12 12 13 14 13 9 12 11 10 9 9 8 7 5 6 6 6 5 6 6 7 6 6 5 6 5 5 5 5 5 4 4 4 4 5 4 3 4 4 3 2 3 2 3 3 2 3 4 3 3 2 3 4 4 4 5
8 11 10 11 11 5 9 6 6 8 8 10 9 9 10 12 17 15 9 8 9 10 12 12 12 12 11 11 9 6 7 8 11 14 14 12 12 14 15 15 15 13 13 12 13 14 13 12 12 11 9 9 9 9 7 7 6 6 6 7 6 6 6 5 6 5 5 5 6 5 6 5 5 5 5 5 5 5 4 3 2 4 3 3 3 3 3 3 0 4 4 1 2 3 3 5 4
9 7 11 10 11 7 7 9 7 8 9 4 7 9 7 8 8 9 9 9 11 11 11 12 13 12 12 11 11 10 10 7 8 8 12 11 12 14 14 15 15 15 14 12 13 14 14 12 12 12 11 10 10 10 9 7 7 7 7 7 6 6 6 5 6 5 6 6 5 6 6 5 5 5 5 5 6 6 5 5 5 4 4 4 4 4 4 4 4 6 2 2 3 2 1 3 5
8 4 9 8 11 10 9 10 10 9 8 10 10 9 7 7 8 8 8 11 11 10 10 11 10 10 11 12 11 10 10 10 10 10 9 12 15 15 15 15 15 14 14 14 13 14 16 15 14 13 11 11 10 10 10 8 8 8 8 7 6 6 6 7 7 6 6 6 6 7 6 5 6 5 5 6 5 6 5 5 4 4 4 4 4 4 4 4 4 5 5 3 1 3 4 3 3
1 5 7 9 10 9 9 10 10 9 8 10 8 11 10 9 9 4 8 11 12 10 12 9 7 8 8 6 6 6 7 8 8 7 11 12 12 12 13 14 14 15 14 15 15 14 14 14 15 13 12 12 11 12 10 10 8 9 8 7 7 5 8 7 7 7 6 6 6 5 6 6 6 6 6 6 6 6 5 5 5 5 5 4 5 5 5 5 6 5 5 5 5 5 5 5 2
3 4 4 9 8 8 9 9 9 7 6 9 9 8 9 9 6 7 9 9 11 12 8 9 7 3 5 5 2 4 4 4 6 8 7 7 9 14 14 13 14 14 14 15 15 15 15 14 15 15 14 12 12 13 12 11 10 9 8 8 8 7 7 7 7 7 7 6 6 6 6 6 6 6 6 6 6 6 5 5 5 5 5 6 6 6 6 6 5 6 6 5 5 5 5 5 6
4 6 10 10 10 9 7 8 9 9 9 11 13 10 10 9 7 7 8 8 5 5 7 3 3 3 2 3 5 4 3 2 3 4 4 4 5 7 10 14 14 14 13 15 14 15 15 15 16 16 15 12 13 13 13 12 10 9 8 8 8 8 8 8 8 7 7 7 7 6 6 6 6 6 6 5 5 6 5 5 5 5 5 5 5 5 5 5 5 5 5 6 6 6 5 5 5
8 8 9 8 8 4 7 8 8 8 10 11 12 11 10 11 7 6 3 9 7 1 8 7 6 3 2 2 1 3 4 4 4 4 5 4 4 7 10 12 14 15 15 15 14 15 16 15 16 16 15 14 14 13 13 12 10 9 9 9 9 8 8 7 8 8 8 8 7 6 6 6 6 6 6 5 5 5 5 4 4 4 4 4 5 4 4 5 5 5 5 5 5 5 5 5 6
11 10 9 8 6 5 7 8 8 9 7 3 3 5 7 11 9 2 7 6 7 6 4 6 5 2 2 1 3 4 4 5 5 5 4 3 4 6 10 12 14 15 15 17 16 15 15 16 18 17 16 15 14 14 13 13 11 10 9 10 9 8 9 9 8 9 8 7 7 6 6 6 6 6 6 6 6 6 5 4 4 4 4 4 5 5 5 5 5 5 5 6 6 6 6 6 6
10 10 7 8 7 6 8 8 5 8 10 5 5 4 9 5 8 4 8 7 7 6 4 5 4 4 2 2 2 3 5 5 6 6 6 5 5 4 8 11 12 13 14 15 15 14 13 14 17 17 17 15 14 14 14 13 12 11 10 9 9 8 9 9 8 8 8 7 7 7 6 6 6 6 6 7 7 6 5 5 5 5 5 5 5 5 4 4 4 5 5 5 6 5 5 5 5
9 9 10 8 8 6 8 7 7 7 2 6 3 4 6 10 1 7 7 7 7 6 8 8 5 5 3 3 4 5 5 6 6 7 7 6 3 3 4 7 9 10 12 13 13 13 13 14 15 17 17 16 15 15 13 13 11 11 10 9 9 8 8 8 8 8 8 8 8 8 7 6 6 6 7 7 8 6 7 6 6 6 5 5 4 4 4 4 4 4 5 5 5 4 4 4 4
7 8 9 10 8 5 10 5 8 6 5 5 7 4 2 2 6 4 6 8 7 8 9 9 7 5 5 3 4 4 5 7 7 6 7 6 4 2 2 6 8 8 10 11 12 11 12 13 15 16 16 16 15 15 14 14 12 10 10 10 10 9 8 8 8 7 7 7 7 8 8 7 6 7 7 8 8 7 7 7 7 6 6 6 5 5 4 4 3 4 4 4 4 3 3 3 4
2 8 9 8 4 9 6 7 8 1 6 10 6 5 9 6 8 8 10 8 10 9 10 9 9 8 5 5 4 5 7 8 7 7 7 8 5 2 2 5 5 7 9 9 9 10 11 10 12 15 14 14 14 14 13 13 12 11 11 11 10 9 9 9 8 8 8 8 7 8 8 8 7 7 8 8 8 8 7 7 7 7 7 6 6 5 4 4 4 4 4 4 4 4 3 3 2
8 8 4 8 9 8 5 6 2 5 8 6 6 9 10 7 4 11 11 11 10 9 9 9 8 8 7 6 6 6 7 8 9 9 8 7 9 6 3 3 4 5 6 6 7 6 6 7 10 13 12 13 13 13 12 12 12 11 11 11 10 10 9 9 8 8 8 8 8 7 7 8 8 7 8 8 9 9 8 9 7 7 7 6 6 6 6 5 4 4 4 3 3 4 4 4 3
11 10 2 6 3 7 7 5 8 8 8 7 8 12 11 10 5 9 12 13 11 10 9 10 9 8 7 8 8 8 8 8 8 8 8 8 7 7 6 5 6 6 5 5 6 5 4 7 8 7 8 9 10 9 10 10 11 9 8 10 11 10 9 8 8 8 8 8 9 8 8 8 8 8 9 9 10 10 9 9 8 8 7 7 7 6 6 6 5 5 4 4 4 4 4 3 3
14 11 13 9 8 9 7 4 8 7 9 7 9 12 7 5 4 9 10 12 10 11 11 10 10 8 7 7 7 8 8 8 9 9 9 8 8 8 7 6 6 7 7 7 7 4 4 5 5 6 6 6 6 6 6 6 8 9 9 9 10 10 10 9 8 7 7 9 10 9 8 8 8 8 9 11 10 11 11 10 9 9 9 8 8 7 7 6 6 5 5 5 5 4 5 4 4
9 10 10 9 8 6 8 7 9 8 8 8 8 8 7 3 3 5 8 9 10 10 10 8 8 8 8 8 8 8 9 8 8 9 9 10 9 8 7 6 6 7 8 9 9 8 4 4 5 7 7 5 7 7 7 6 6 8 8 8 7 7 8 7 4 3 8 7 6 5 6 7 8 8 9 11 11 11 12 11 11 10 10 9 9 8 7 7 6 6 5 5 5 5 5 5 4
7 6 7 7 9 9 11 10 7 10 9 8 7 10 6 4 2 3 3 7 8 11 9 8 8 8 9 9 9 9 9 9 9 9 9 10 10 10 9 8 8 8 9 10 9 7 7 5 4 3 4 5 4 3 4 5 4 4 6 5 5 4 6 2 4 5 3 5 7 5 7 8 7 8 9 11 12 11 11 12 12 11 11 11 11 10 9 8 7 7 6 5 6 6 6 5 4
Wind_Direction
256 235 244 242 251 259 258 219 248 186 237 244 255 237 304 177 49 254 224 166 227 98 14 169 318 163 288 282 286 70 50 19 20 306 87 122 135 118 129 124 120 117 118 120 127 132 132 127 126 124 124 126 125 124 128 130 127 126 129 127 130 133 130 127 126 124 125 128 133 134 135 140 139 134 126 125 120 116 114 117 118 121 118 124 129 132 127 124 129 114 115 114 106 104 103 100 97
227 234 234 244 243 243 218 218 257 256 212 244 242 261 146 135 175 219 252 186 23 82 161 118 190 114 54 304 356 79 64 52 51 83 115 108 143 120 114 109 121 110 112 124 135 136 136 135 129 128 127 128 128 127 131 135 134 130 131 133 129 127 125 124 126 127 128 131 135 136 138 137 129 125 124 121 113 110 111 116 117 114 113 119 130 134 138 139 118 120 120 114 110 107 107 103 96
259 219 217 220 235 239 299 218 249 242 243 236 235 220 89 219 233 180 125 56 83 89 221 125 69 91 173 9 210 234 93 84 87 84 91 135 140 120 119 115 89 112 125 131 136 138 138 135 130 128 128 128 127 130 132 132 132 131 129 132 133 131 129 130 130 131 132 134 135 136 135 132 131 128 123 115 101 101 102 108 115 113 119 119 126 132 142 133 124 122 112 119 109 111 109 95 92
286 261 257 213 227 207 243 227 240 266 258 258 266 79 230 313 197 58 66 80 124 180 187 123 213 62 296 209 88 61 94 83 88 102 115 152 121 145 122 103 110 114 133 134 141 138 141 133 134 132 132 132 130 130 132 133 134 131 132 133 134 133 133 133 133 132 132 134 134 134 135 133 129 127 120 111 94 85 78 83 99 113 113 120 123 138 143 135 137 138 132 115 118 112 102 100 93
255 237 242 246 271 224 232 237 247 239 245 251 256 94 27 194 29 184 95 105 130 195 198 137 114 146 12 43 81 162 88 93 102 117 110 112 126 127 118 125 117 130 134 132 139 139 134 137 135 132 132 135 130 130 134 135 137 136 136 136 135 134 133 132 132 132 132 135 137 136 133 133 130 123 115 103 82 79 83 74 82 93 98 99 89 64 54 66 109 126 122 112 93 99 104 97 91
238 245 208 254 242 359 284 249 235 242 268 270 274 67 62 17 61 62 116 211 143 201 224 177 227 164 170 48 21 56 15 162 78 93 129 119 128 126 118 117 137 133 128 135 141 141 138 130 131 131 132 132 132 132 133 137 141 140 138 136 136 135 134 134 135 136 136 136 138 134 133 132 126 119 108 98 90 79 78 79 97 97 102 100 86 83 78 81 92 96 104 109 110 107 105 96 84
218 214 201 224 249 249 251 250 248 249 239 240 257 347 32 106 86 227 152 175 179 185 195 192 193 166 144 131 81 45 74 92 149 108 125 129 126 133 139 129 119 120 128 126 139 137 136 128 130 134 134 134 135 135 136 138 141 144 143 140 137 136 137 137 136 137 137 139 139 137 132 130 128 117 111 104 94 86 87 93 106 109 102 100 100 102 97 99 102 100 104 114 112 98 96 91 87
261 261 172 228 236 202 231 249 257 262 101 263 39 301 135 85 301 259 163 234 150 215 175 215 190 166 68 191 117 79 76 42 89 110 122 134 133 136 141 130 123 132 135 141 135 131 127 123 129 134 134 137 138 136 138 143 146 150 148 144 140 138 138 137 133 134 137 136 137 135 135 131 123 114 109 109 103 94 91 104 108 111 115 108 106 112 113 113 115 117 116 111 111 105 101 94 93
229 235 245 254 253 228 240 245 252 237 274 103 237 67 22 357 337 296 234 285 113 207 185 187 189 215 173 129 89 104 88 92 101 114 123 132 141 132 139 136 129 131 131 137 136 135 136 122 117 118 128 133 138 141 143 146 150 150 149 148 144 142 142 139 139 137 136 134 134 136 133 124 111 107 106 107 106 104 99 101 106 115 116 119 119 118 126 122 122 118 120 126 116 110 107 106 104
226 236 200 242 256 249 241 242 243 244 244 231 248 196 196 182 227 225 285 182 213 149 190 208 164 169 139 131 136 137 108 116 122 122 129 134 137 135 142 137 124 132 128 132 138 139 133 124 117 119 122 129 134 140 150 150 149 150 148 147 146 146 145 143 139 136 134 135 136 133 125 111 103 103 112 115 113 113 110 118 115 116 121 118 123 123 125 130 122 127 128 126 119 113 111 109 104
233 198 273 262 240 252 250 251 240 220 222 216 249 215 211 163 265 254 230 285 148 207 146 238 197 163 153 102 77 60 113 130 135 129 137 142 141 142 132 136 139 135 133 136 137 135 136 137 120 110 106 123 123 133 150 151 149 148 150 145 145 145 145 141 140 138 133 134 137 127 115 117 119 114 113 115 120 124 126 125 124 120 123 130 128 127 95 97 121 139 135 124 117 112 107 105 100
247 220 200 243 250 250 242 245 247 203 93 219 246 164 118 268 228 244 224 246 161 190 188 198 184 176 155 130 100 129 137 135 132 133 145 147 134 135 135 126 127 128 130 131 130 134 141 140 139 109 94 126 128 129 128 146 152 149 144 143 146 142 138 139 139 135 134 136 132 125 126 129 133 135 132 133 132 132 128 134 131 127 124 122 126 103 109 114 140 164 140 130 123 117 114 113 115
251 244 228 246 255 247 258 281 302 300 311 212 235 106 89 242 243 234 251 253 211 198 185 198 128 238 110 84 117 157 147 132 133 141 149 147 136 144 99 47 85 121 129 131 137 138 146 146 144 149 137 118 115 86 132 131 144 139 147 143 134 134 142 141 139 135 131 128 127 131 129 133 135 140 144 149 151 140 131 138 137 131 122 124 123 121 121 135 150 168 149 133 125 119 119 120 120
240 248 266 258 254 264 283 273 271 273 237 224 94 110 142 291 259 268 259 240 229 224 171 188 194 100 123 129 154 151 144 142 135 143 152 139 130 94 94 128 214 128 140 133 134 141 141 146 147 154 152 151 144 134 129 125 122 120 121 125 115 116 122 117 121 122 131 126 124 130 130 126 135 142 144 147 140 137 133 139 144 139 124 121 128 132 133 134 163 140 171 135 127 125 127 121 116
250 248 270 269 268 263 238 259 255 237 257 109 99 214 21 238 267 249 250 248 234 255 110 168 191 177 124 168 167 165 146 169 145 143 142 142 135 139 142 152 154 98 129 138 129 142 139 142 147 146 152 154 157 155 160 133 125 134 117 98 122 120 120 121 116 116 117 114 101 109 118 126 133 130 133 139 141 136 131 130 138 140 133 129 130 133 140 148 159 165 152 146 127 113 106 92 86
251 271 249 255 249 253 238 237 245 281 236 129 107 235 260 267 223 248 234 254 249 170 132 167 181 259 136 200 171 147 150 156 145 137 142 142 118 112 114 131 125 158 146 142 136 131 143 140 141 141 147 151 159 174 162 147 133 147 127 105 132 136 150 131 130 132 124 98 98 107 118 129 125 119 95 152 137 135 151 161 134 135 141 140 135 142 147 155 160 160 151 135 123 115 106 107 104
241 264 252 237 253 239 242 241 228 242 149 136 77 65 306 309 104 248 282 234 254 137 179 188 199 173 170 189 144 149 151 150 141 145 149 137 127 126 134 143 146 132 187 150 145 152 133 150 145 151 154 155 154 171 141 147 146 174 143 136 156 141 153 140 122 125 145 140 134 123 133 151 144 136 160 168 151 165 181 142 142 135 139 145 146 151 159 161 164 158 145 135 132 128 126 125 123
221 228 239 244 248 247 245 238 230 40 266 84 5 36 320 277 126 188 207 229 244 187 223 171 193 88 16 89 105 136 146 152 149 154 159 147 151 144 150 132 136 143 161 147 146 153 153 153 152 143 149 152 137 143 143 154 151 177 173 161 162 157 147 138 146 151 168 136 105 161 155 152 173 158 171 173 162 184 182 153 150 153 153 145 146 154 160 163 164 159 146 144 137 141 151 176 159
225 227 235 251 232 249 6 2 346 313 312 8 2 293 342 288 321 166 240 216 213 202 201 169 163 104 85 109 139 137 153 149 153 162 165 159 154 152 150 154 156 153 163 151 153 151 157 154 156 144 164 146 140 127 152 134 175 178 175 173 184 179 182 177 176 177 184 185 177 189 163 160 178 172 153 201 167 186 182 160 162 168 169 157 157 156 159 161 160 156 152 151 153 156 186 230 193
225 254 237 238 267 331 338 18 295 296 337 278 300 313 284 301 256 42 253 227 200 211 194 173 172 143 129 126 140 155 160 151 161 164 167 164 155 155 162 156 161 162 145 151 150 136 141 150 139 146 148 152 158 167 173 167 198 194 177 184 180 195 198 201 196 172 217 218 198 139 185 175 191 170 188 191 152 183 177 178 170 177 165 180 167 162 158 161 159 159 157 156 170 190 200 215 215
194 234 247 249 49 296 198 221 249 260 283 284 278 314 267 103 286 261 243 249 213 201 201 194 186 146 139 143 167 171 161 157 162 169 168 160 152 154 153 150 151 151 147 145 138 143 145 144 138 144 150 146 152 147 158 157 170 156 166 185 166 189 202 219 192 139 151 154 264 190 212 235 202 151 187 192 185 146 170 182 174 195 196 196 178 212 171 172 178 176 165 175 193 199 204 216 233
259 235 250 269 335 235 277 270 159 280 317 277 268 253 297 353 244 236 251 245 228 216 204 201 162 161 145 152 182 192 176 157 163 170 163 152 154 151 141 140 131 136 134 150 147 145 145 149 149 136 162 156 132 176 163 148 158 169 149 174 178 212 213 201 212 141 161 202 210 202 158 187 202 212 243 247 117 103 226 239 194 187 251 180 179 230 193 179 193 179 175 181 192 201 229 235 201
244 220 248 259 276 280 63 247 279 230 238 250 261 297 312 253 265 224 248 234 214 209 190 202 164 135 140 130 127 124 237 167 166 172 150 152 153 143 137 133 136 136 156 142 154 138 176 147 149 151 150 130 168 179 146 169 171 194 164 189 189 209 182 265 206 196 188 191 188 202 156 188 196 161 228 230 186 179 195 228 206 167 178 117 211 222 197 201 208 163 185 179 177 196 201 200 215
249 263 213 221 249 253 258 248 240 235 237 237 265 301 262 259 244 162 231 105 181 90 108 76 99 142 138 122 132 157 212 187 172 153 153 149 151 144 137 141 154 166 160 145 142 168 169 150 153 175 133 141 184 221 146 189 164 193 182 172 238 193 183 173 200 189 169 119 162 214 235 191 177 205 190 212 168 159 166 222 336 150 203 176 149 203 197 204 197 173 161 200 179 188 200 208 207
230 244 259 266 234 253 255 243 230 233 234 247 244 251 246 227 318 164 208 126 97 188 139 127 158 133 149 143 161 208 188 188 172 145 150 152 146 139 146 149 143 148 135 154 157 162 170 138 152 147 120 166 144 262 107 306 295 176 164 214 201 145 215 195 165 112 231 194 189 194 206 216 206 163 173 32 357 35 60 27 14 14 307 331 147 161 246 231 191 193 158 185 188 195 209 209 202
223 245 243 232 238 232 225 219 231 223 228 235 238 231 217 235 132 218 120 109 193 169 161 149 135 129 167 152 181 181 186 172 157 152 148 145 148 150 148 150 145 148 148 146 154 142 135 146 163 132 172 166 137 193 123 141 119 304 180 201 246 165 215 243 104 156 150 187 199 127 145 338 263 70 100 38 55 39 51 75 345 18 36 280 146 192 243 238 231 209 189 170 180 203 221 209 223
268 215 242 249 241 230 207 239 216 208 237 186 235 204 170 171 221 116 133 129 170 180 156 130 129 139 154 171 181 203 172 164 162 153 152 150 153 152 149 152 162 145 144 146 152 151 129 167 143 142 131 29 125 192 140 135 205 198 189 256 219 213 190 239 244 222 160 169 145 154 190 190 231 85 73 84 203 90 71 192 206 220 227 261 230 200 213 218 208 205 174 174 191 190 211 207 210
226 278 260 241 253 251 235 220 236 204 203 208 244 168 172 173 213 193 138 161 171 169 160 146 151 162 162 181 177 193 174 155 166 157 157 154 161 156 158 158 153 142 145 150 153 133 157 159 140 138 111 134 310 78 148 253 229 265 154 193 301 227 61 276 241 214 115 267 166 155 133 189 154 117 119 187 240 204 188 219 210 250 271 11 313 259 165 238 227 239 195 166 147 203 194 278 227
247 221 242 225 225 225 205 216 213 208 187 194 241 151 204 183 173 103 132 158 197 173 154 154 173 159 158 185 180 186 171 160 170 161 166 162 162 151 156 155 144 149 143 154 134 138 158 125 111 117 119 133 163 327 38 11 23 243 222 234 142 233 176 250 241 160 45 70 269 215 178 193 172 163 138 222 261 257 297 201 211 188 163 178 245 246 158 23 233 186 206 178 172 171 158 194 243
242 240 255 234 204 221 188 212 194 202 145 194 195 221 184 193 102 133 153 169 189 188 164 174 178 153 167 186 187 176 167 163 165 178 160 159 149 149 155 156 157 159 148 149 139 145 145 108 116 109 114 139 138 116 63 272 74 357 328 267 115 202 229 246 278 288 190 180 180 154 202 135 88 99 137 53 333 307 262 226 232 228 215 175 217 259 224 190 234 239 183 192 170 169 157 207 203
230 212 226 253 203 217 158 202 159 214 123 203 207 248 199 141 140 128 163 180 191 184 178 183 176 168 166 179 173 163 171 157 189 152 165 148 150 153 156 163 164 157 153 142 149 144 146 123 119 117 129 112 148 119 178 102 161 274 197 311 102 210 67 223 227 241 218 183 211 154 181 66 336 78 88 142 237 247 257 250 222 25 69 130 143 280 213 192 203 185 314 206 156 175 140 170 56
232 212 211 221 242 136 153 196 171 224 137 210 216 240 232 165 138 149 156 212 210 191 189 183 181 186 164 121 133 126 158 182 125 166 169 157 166 151 163 162 180 150 149 146 145 144 141 129 131 126 135 117 119 106 98 68 116 94 34 70 15 211 165 253 328 75 195 205 117 45 44 106 166 271 97 113 232 227 246 271 88 127 75 136 181 200 214 178 161 179 96 22 174 135 145 183 142
209 240 202 206 232 141 180 186 185 232 166 195 220 234 219 168 136 151 174 196 212 214 192 197 186 183 180 119 134 172 148 206 160 177 170 135 176 172 165 170 176 151 146 150 147 144 141 134 140 135 144 140 131 129 124 120 101 123 147 89 172 207 182 175 198 187 204 345 102 47 21 83 237 83 196 161 208 239 227 315 37 106 185 149 199 214 194 180 154 157 19 358 335 215 151 149 143
213 218 234 220 229 156 219 148 211 189 215 188 203 252 263 107 133 159 180 213 200 221 198 197 206 181 196 156 164 167 154 189 187 201 151 165 184 185 177 172 175 152 147 152 146 151 141 138 147 144 143 144 138 139 135 163 147 115 168 125 16 48 19 211 172 150 79 11 104 137 164 303 344 121 351 197 108 278 337 76 227 25 247 200 211 192 206 164 123 135 168 200 203 235 184 173 148
228 178 251 203 257 289 128 187 162 200 200 250 193 225 247 157 172 159 195 208 220 206 211 200 214 214 167 203 202 169 167 183 193 198 148 183 199 185 178 170 172 156 152 153 149 155 144 142 143 146 151 142 146 151 148 129 111 153 77 148 137 178 142 60 350 65 75 59 17 51 39 84 54 19 51 37 239 259 69 113 223 153 159 187 217 217 213 174 142 197 226 159 26 319 307 309 132
191 200 221 213 211 217 259 104 131 252 178 232 234 216 237 242 210 211 196 194 232 210 208 213 212 214 203 212 208 153 187 180 188 196 168 183 191 185 180 168 171 161 158 156 156 155 151 144 149 153 151 151 148 159 166 172 169 169 137 153 140 52 42 61 59 100 145 92 52 36 61 83 53 73 96 50 346 302 112 96 150 219 178 153 196 220 213 216 189 186 195 176 191 260 266 240 172
330 313 270 253 214 198 211 136 91 173 280 232 226 207 247 245 227 229 193 200 237 233 201 208 217 214 212 214 222 200 179 182 169 182 184 182 187 188 184 166 165 164 163 163 160 164 156 156 157 158 155 157 165 171 180 181 162 145 122 116 112 170 105 108 68 45 76 67 45 58 44 50 50 35 14 33 29 252 303 137 160 180 147 134 137 161 192 274 334 32 355 297 236 228 292 243 190
272 259 248 246 216 263 196 211 145 191 248 239 237 230 233 259 218 242 218 219 233 225 216 200 214 214 217 214 214 221 177 153 178 194 186 187 185 185 181 170 172 170 172 168 170 170 165 160 158 155 157 163 168 178 149 147 163 134 164 142 140 147 157 177 123 105 88 86 86 66 71 62 68 52 39 42 19 9 86 52 135 172 170 159 153 157 142 152 196 189 240 257 245 218 223 209 161
249 256 241 253 229 225 50 107 162 159 232 261 248 216 236 246 233 213 225 217 235 228 219 206 201 210 208 209 212 216 221 169 192 166 184 185 198 185 185 168 172 176 171 172 171 172 167 173 164 157 162 161 158 158 156 157 109 73 33 100 99 91 47 36 76 91 100 101 80 82 57 51 56 73 75 37 34 48 56 81 89 128 210 138 155 166 163 171 187 179 202 200 218 239 225 179 173
245 227 245 239 235 233 180 170 206 215 242 261 285 263 209 254 243 215 214 222 226 217 208 209 208 203 207 216 208 215 218 220 164 147 182 192 201 185 179 173 172 174 175 177 164 174 173 175 169 166 162 160 151 157 168 124 106 100 84 92 68 76 95 91 95 94 102 97 84 64 71 58 38 30 32 102 80 52 36 96 111 102 116 141 143 163 161 186 172 178 186 218 228 223 194 182 173
222 251 253 246 244 263 292 148 205 134 251 279 274 273 250 230 239 207 202 212 217 193 213 223 214 213 205 218 219 205 217 216 177 167 180 200 195 187 183 180 173 178 181 181 173 173 173 176 168 170 162 156 153 154 153 129 129 128 115 111 107 106 126 141 141 120 107 102 104 94 80 65 79 81 70 52 66 64 61 46 47 61 79 106 161 158 162 152 168 162 166 197 211 250 194 196 157
227 215 254 272 285 251 241 142 192 218 222 204 237 248 244 234 229 228 188 205 216 212 210 201 200 205 204 211 220 229 247 227 214 194 190 199 201 195 191 183 182 182 180 181 175 172 172 173 166 171 163 153 154 155 152 151 157 149 147 147 146 147 142 155 139 138 140 115 94 95 89 85 71 67 66 62 66 90 95 85 36 77 68 55 26 42 64 71 349 175 118 109 168 175 266 186 159
255 218 205 245 261 247 239 241 224 249 259 185 189 256 264 263 257 195 177 194 215 207 211 205 194 192 192 203 205 203 213 225 254 227 191 188 215 216 198 194 188 183 181 175 175 173 170 169 166 172 163 156 152 159 159 166 164 159 165 161 155 153 144 114 103 105 104 105 102 98 100 97 91 86 82 79 78 71 67 62 52 54 75 67 57 48 48 21 36 27 66 125 107 121 180 214 183
259 52 180 232 240 237 232 246 238 253 271 139 214 251 265 256 231 232 179 196 213 196 200 217 208 201 208 207 208 198 203 195 194 220 232 198 201 214 203 198 192 187 177 172 174 176 173 170 171 168 163 156 155 160 165 173 171 163 175 173 160 160 139 124 128 116 107 107 120 122 118 116 109 96 89 85 81 75 67 67 59 51 58 70 80 75 60 61 52 56 37 16 3 54 71 80 75
179 264 261 228 241 231 229 234 242 251 251 252 224 221 247 249 261 193 179 199 216 212 202 197 222 223 216 225 237 225 222 222 225 217 203 218 208 224 212 202 197 186 179 176 175 174 175 170 166 165 161 157 155 161 169 177 180 166 178 176 172 149 133 144 141 134 127 122 126 124 107 101 94 92 92 93 90 90 81 74 64 57 48 69 86 79 71 63 53 53 60 48 39 40 20 25 55
214 293 252 261 256 251 229 240 251 247 269 263 246 232 261 254 254 213 182 225 230 234 224 206 180 225 253 237 252 299 282 259 256 256 261 245 208 213 212 206 193 189 184 178 177 171 172 168 166 165 162 163 162 166 171 178 182 170 184 179 178 156 150 153 148 137 131 141 128 125 129 124 120 120 113 102 100 95 96 95 86 76 63 55 57 71 82 76 67 65 54 55 52 62 59 40 32
357 253 248 235 239 236 233 246 250 253 235 237 241 232 234 261 232 247 224 203 275 234 157 154 130 164 162 114 242 214 273 336 315 301 294 274 262 252 213 206 192 187 183 180 177 173 170 168 167 169 165 164 164 167 173 176 184 177 185 178 178 165 157 154 145 153 148 149 144 146 144 130 127 122 121 113 99 99 93 85 82 83 77 65 72 75 64 78 89 82 79 71 53 46 49 47 51
252 238 239 242 233 243 254 243 243 253 254 249 242 238 216 249 232 240 33 125 179 54 130 138 180 180 54 80 337 42 20 345 342 335 325 325 294 251 239 211 192 186 180 180 178 174 171 170 168 168 167 167 166 168 174 177 182 183 184 176 178 170 162 163 152 162 158 161 149 154 143 141 134 134 135 131 127 118 110 103 100 94 84 88 84 84 91 89 80 73 66 64 68 61 52 51 43
232 240 237 240 233 217 236 223 224 226 243 297 307 229 219 230 276 72 142 163 145 180 193 177 174 105 103 50 43 34 13 358 356 354 331 307 285 260 231 218 199 186 181 180 178 177 173 173 170 169 170 169 167 170 176 178 183 185 184 178 179 171 172 173 165 164 164 169 162 162 155 155 148 150 150 143 141 142 126 128 119 102 97 84 79 80 75 67 71 80 78 72 66 63 60 49 50
230 234 231 235 234 235 240 236 237 248 240 277 241 291 255 283 245 169 145 128 124 131 105 114 108 97 106 24 63 55 26 18 15 10 1 351 317 257 226 213 201 189 185 180 177 176 175 177 173 173 171 170 167 172 175 180 184 185 185 181 181 176 180 178 182 171 172 175 169 163 170 166 159 161 157 157 153 159 147 129 117 108 104 103 92 82 78 80 93 99 89 80 81 75 68 66 60
243 248 243 238 262 252 254 253 260 259 274 156 217 175 251 241 69 147 148 143 151 152 139 130 130 131 118 64 35 44 41 38 29 27 18 1 347 264 216 203 191 184 193 183 177 180 178 180 178 177 172 171 169 172 174 180 183 186 184 187 183 188 183 185 193 180 179 183 173 166 180 170 166 169 164 158 158 165 144 144 136 136 130 121 118 115 110 106 79 80 89 86 76 77 69 67 62
242 246 253 244 238 242 262 284 284 299 291 249 182 227 274 268 146 153 148 169 165 156 144 150 151 137 109 92 65 48 52 46 44 35 29 32 23 11 191 207 178 192 195 187 183 184 183 182 182 182 176 175 171 171 175 179 182 184 186 187 191 193 189 188 196 190 180 189 177 169 178 176 174 169 162 156 162 165 158 151 155 147 144 143 141 140 139 117 122 114 113 116 110 100 113 117 115
179 238 230 252 255 248 262 262 246 205 258 253 270 239 233 122 202 153 189 180 163 169 161 170 150 134 122 97 80 70 58 58 51 48 40 27 55 66 163 181 187 180 191 188 180 181 181 185 185 185 181 178 176 176 175 178 180 184 187 190 193 198 199 196 198 190 186 182 186 175 179 182 171 171 160 156 165 167 165 165 164 157 156 152 151 149 137 127 143 140 116 134 130 134 119 95 83
268 249 262 274 266 302 273 271 256 246 258 256 225 245 253 230 242 173 183 202 175 192 186 169 151 146 132 109 101 83 73 69 68 67 60 51 29 33 121 145 145 162 163 163 166 170 173 188 188 189 187 183 183 180 179 176 180 185 185 191 197 199 202 207 206 195 189 186 191 188 184 179 180 176 162 161 170 169 169 174 168 166 166 162 159 155 155 151 161 141 145 147 133 142 147 146 143
261 270 339 267 235 228 225 260 257 265 264 275 252 250 257 252 235 159 201 210 199 202 192 161 174 168 131 122 109 102 93 84 76 69 70 64 69 51 51 90 123 131 138 145 132 132 164 192 194 180 187 187 185 187 181 180 183 185 184 191 196 199 202 208 212 210 192 193 198 197 196 187 179 180 171 168 175 173 175 177 175 174 171 172 170 163 162 166 174 148 169 153 151 182 164 149 145
229 256 268 263 275 268 268 241 272 259 264 265 268 269 268 246 271 173 195 203 194 204 184 176 176 150 142 129 118 109 97 89 85 84 77 80 79 71 55 59 74 85 90 94 100 118 139 147 145 166 160 164 135 148 163 173 183 184 190 193 196 202 203 205 212 228 209 210 203 206 202 198 189 189 182 175 181 178 179 180 181 180 177 176 177 169 177 173 177 168 179 174 165 187 179 176 169
221 225 246 245 240 280 289 275 260 263 269 262 275 268 258 243 213 228 199 206 204 200 189 186 158 150 139 123 114 109 104 98 96 92 91 93 95 95 88 72 69 74 69 63 65 66 81 145 178 167 162 175 155 149 161 168 179 198 203 205 202 207 221 216 177 236 259 235 224 234 223 204 208 201 190 184 188 184 182 185 185 186 183 183 179 178 183 174 189 175 191 173 170 195 190 183 178
294 284 264 258 254 235 237 250 241 261 270 276 278 276 279 10 25 283 218 180 202 185 196 173 166 150 127 122 120 118 113 109 105 103 102 97 93 96 103 104 93 79 76 74 69 69 54 46 102 75 152 176 179 180 213 179 177 193 203 205 221 220 239 231 161 186 166 340 318 308 276 252 231 210 218 197 199 188 189 188 189 189 189 187 186 183 182 183 189 183 183 177 188 194 202 181 190